Location: Batang Balui
(2.7000°N, 113.7833°E)
Time: 03:53:15
(UTC+00:00)

Cosmos 2026 Rocket - Pass Details

Date: 08 February 2023
Orbit: 940 x 999 km, 82.9° (Epoch: 26 March)

Event Time Altitude Azimuth Distance (km) Brightness Sun altitude
Rises 20:26:08 0° 174° (S) 3,638 7.2 -32.8°
Reaches altitude 10° 20:28:42 10° 170° (S) 2,683 6.6 -32.1°
Maximum altitude 20:34:40 56° 93° (E) 1,115 4.5 -30.7°
Drops below altitude 10° 20:40:33 10° 16° (NNE) 2,648 6.3 -29.3°
Sets 20:43:04 0° 12° (NNE) 3,588 6.9 -28.7°
